owner,sensor,date,latitude,longitude,vertical_datum,mass_concentration_of_oxygen_in_sea_water,qcFlag 
TCOON,ioos:station:TCOON:148:1,2017-06-13T20:30:00Z,27.9799,-97.0288,1.0,6.68,1111122 
TCOON,ioos:station:TCOON:148:1,2017-06-13T21:30:00Z,27.9799,-97.0288,1.0,6.69,1111122 
TCOON,ioos:station:TCOON:148:1,2017-06-13T22:30:00Z,27.9799,-97.0288,1.0,6.54,1111122 
TCOON,ioos:station:TCOON:148:1,2017-06-13T23:30:00Z,27.9799,-97.0288,1.0,6.68,1111122 
TCOON,ioos:station:TCOON:148:1,2017-06-14T00:30:00Z,27.9799,-97.0288,1.0,6.71,1111122 
TCOON,ioos:station:TCOON:148:1,2017-06-14T01:30:00Z,27.9799,-97.0288,1.0,6.59,1111122 
TCOON,ioos:station:TCOON:148:1,2017-06-14T03:30:00Z,27.9799,-97.0288,1.0,6.23,1111122 
TCOON,ioos:station:TCOON:148:1,2017-06-14T04:30:00Z,27.9799,-97.0288,1.0,6.27,1111122 
TCOON,ioos:station:TCOON:148:1,2017-06-14T05:30:00Z,27.9799,-97.0288,1.0,6.24,1111122 
TCOON,ioos:station:TCOON:148:1,2017-06-14T06:30:00Z,27.9799,-97.0288,1.0,6.29,1111122 
TCOON,ioos:station:TCOON:148:1,2017-06-14T07:30:00Z,27.9799,-97.0288,1.0,6.18,1111122 
TCOON,ioos:station:TCOON:148:1,2017-06-14T08:30:00Z,27.9799,-97.0288,1.0,6.1,1111122 
TCOON,ioos:station:TCOON:148:1,2017-06-14T09:30:00Z,27.9799,-97.0288,1.0,6.08,1111122 
TCOON,ioos:station:TCOON:148:1,2017-06-14T10:30:00Z,27.9799,-97.0288,1.0,6.04,1111122 
TCOON,ioos:station:TCOON:148:1,2017-06-14T11:30:00Z,27.9799,-97.0288,1.0,6.04,1111122 
TCOON,ioos:station:TCOON:148:1,2017-06-14T12:30:00Z,27.9799,-97.0288,1.0,6.05,1111122 
TCOON,ioos:station:TCOON:148:1,2017-06-14T13:30:00Z,27.9799,-97.0288,1.0,6.04,1111122 
TCOON,ioos:station:TCOON:148:1,2017-06-14T14:30:00Z,27.9799,-97.0288,1.0,5.98,1111122 
TCOON,ioos:station:TCOON:148:1,2017-06-14T15:30:00Z,27.9799,-97.0288,1.0,6.03,1111122 
TCOON,ioos:station:TCOON:148:1,2017-06-14T16:30:00Z,27.9799,-97.0288,1.0,6.08,1111122 
TCOON,ioos:station:TCOON:148:1,2017-06-14T17:30:00Z,27.9799,-97.0288,1.0,6.23,1111122 
TCOON,ioos:station:TCOON:148:1,2017-06-14T18:30:00Z,27.9799,-97.0288,1.0,6.4,1111122 
TCOON,ioos:station:TCOON:148:1,2017-06-14T19:30:00Z,27.9799,-97.0288,1.0,6.27,1111122 
TCOON,ioos:station:TCOON:148:1,2017-06-14T20:30:00Z,27.9799,-97.0288,1.0,6.68,1111122 
TCOON,ioos:station:TCOON:148:1,2017-06-14T21:30:00Z,27.9799,-97.0288,1.0,6.62,1111122 
TCOON,ioos:station:TCOON:148:1,2017-06-14T22:30:00Z,27.9799,-97.0288,1.0,6.66,1111122 
TCOON,ioos:station:TCOON:148:1,2017-06-14T23:30:00Z,27.9799,-97.0288,1.0,6.47,1111122 
TCOON,ioos:station:TCOON:148:1,2017-06-15T00:30:00Z,27.9799,-97.0288,1.0,6.76,1111122 
TCOON,ioos:station:TCOON:148:1,2017-06-15T01:30:00Z,27.9799,-97.0288,1.0,6.77,1111122 
TCOON,ioos:station:TCOON:148:1,2017-06-15T02:30:00Z,27.9799,-97.0288,1.0,6.76,1111122 
TCOON,ioos:station:TCOON:148:1,2017-06-15T03:30:00Z,27.9799,-97.0288,1.0,6.62,1111122 
TCOON,ioos:station:TCOON:148:1,2017-06-15T04:30:00Z,27.9799,-97.0288,1.0,6.43,1111122 
TCOON,ioos:station:TCOON:148:1,2017-06-15T05:30:00Z,27.9799,-97.0288,1.0,6.27,1111122 
TCOON,ioos:station:TCOON:148:1,2017-06-15T06:30:00Z,27.9799,-97.0288,1.0,6.12,1111122 
TCOON,ioos:station:TCOON:148:1,2017-06-15T07:30:00Z,27.9799,-97.0288,1.0,6.05,1111122 
TCOON,ioos:station:TCOON:148:1,2017-06-15T08:30:00Z,27.9799,-97.0288,1.0,6.05,1111122 
TCOON,ioos:station:TCOON:148:1,2017-06-15T09:30:00Z,27.9799,-97.0288,1.0,6.07,1111122 
TCOON,ioos:station:TCOON:148:1,2017-06-15T10:30:00Z,27.9799,-97.0288,1.0,5.89,1111122 
TCOON,ioos:station:TCOON:148:1,2017-06-15T11:30:00Z,27.9799,-97.0288,1.0,5.68,1111122 
TCOON,ioos:station:TCOON:148:1,2017-06-15T12:30:00Z,27.9799,-97.0288,1.0,5.78,1111122 
TCOON,ioos:station:TCOON:148:1,2017-06-15T13:30:00Z,27.9799,-97.0288,1.0,5.81,1111122 
TCOON,ioos:station:TCOON:148:1,2017-06-15T14:30:00Z,27.9799,-97.0288,1.0,5.87,1111122 
TCOON,ioos:station:TCOON:148:1,2017-06-15T15:30:00Z,27.9799,-97.0288,1.0,5.89,1111122 
TCOON,ioos:station:TCOON:148:1,2017-06-15T16:30:00Z,27.9799,-97.0288,1.0,5.77,1111122 
TCOON,ioos:station:TCOON:148:1,2017-06-15T17:30:00Z,27.9799,-97.0288,1.0,5.55,1111122 
TCOON,ioos:station:TCOON:148:1,2017-06-15T18:30:00Z,27.9799,-97.0288,1.0,5.73,1111122 
TCOON,ioos:station:TCOON:148:1,2017-06-15T19:30:00Z,27.9799,-97.0288,1.0,6.33,1111122 
TCOON,ioos:station:TCOON:148:1,2017-06-15T21:30:00Z,27.9799,-97.0288,1.0,6.69,1111122 
TCOON,ioos:station:TCOON:148:1,2017-06-16T00:30:00Z,27.9799,-97.0288,1.0,6.93,1111122 
TCOON,ioos:station:TCOON:148:1,2017-06-16T01:30:00Z,27.9799,-97.0288,1.0,6.77,1111122 
TCOON,ioos:station:TCOON:148:1,2017-06-16T02:30:00Z,27.9799,-97.0288,1.0,6.66,1111122 
TCOON,ioos:station:TCOON:148:1,2017-06-16T03:30:00Z,27.9799,-97.0288,1.0,6.5,1111122 
TCOON,ioos:station:TCOON:148:1,2017-06-16T04:30:00Z,27.9799,-97.0288,1.0,6.29,1111122 
TCOON,ioos:station:TCOON:148:1,2017-06-16T05:30:00Z,27.9799,-97.0288,1.0,6.11,1111122 
TCOON,ioos:station:TCOON:148:1,2017-06-16T06:30:00Z,27.9799,-97.0288,1.0,6.15,1111122 
TCOON,ioos:station:TCOON:148:1,2017-06-16T07:30:00Z,27.9799,-97.0288,1.0,5.98,1111122 
TCOON,ioos:station:TCOON:148:1,2017-06-16T08:30:00Z,27.9799,-97.0288,1.0,6.12,1111122 
TCOON,ioos:station:TCOON:148:1,2017-06-16T09:30:00Z,27.9799,-97.0288,1.0,6.12,1111122 
TCOON,ioos:station:TCOON:148:1,2017-06-16T10:30:00Z,27.9799,-97.0288,1.0,5.98,1111122 
TCOON,ioos:station:TCOON:148:1,2017-06-16T11:30:00Z,27.9799,-97.0288,1.0,5.69,1111122 
TCOON,ioos:station:TCOON:148:1,2017-06-16T12:30:00Z,27.9799,-97.0288,1.0,5.89,1111122 
TCOON,ioos:station:TCOON:148:1,2017-06-16T13:30:00Z,27.9799,-97.0288,1.0,5.98,1111122 
TCOON,ioos:station:TCOON:148:1,2017-06-16T14:30:00Z,27.9799,-97.0288,1.0,5.92,1111122 
TCOON,ioos:station:TCOON:148:1,2017-06-16T15:30:00Z,27.9799,-97.0288,1.0,6.13,1111122 
TCOON,ioos:station:TCOON:148:1,2017-06-16T16:30:00Z,27.9799,-97.0288,1.0,6.3,1111122 
TCOON,ioos:station:TCOON:148:1,2017-06-16T17:30:00Z,27.9799,-97.0288,1.0,6.37,1111122 
TCOON,ioos:station:TCOON:148:1,2017-06-16T18:30:00Z,27.9799,-97.0288,1.0,6.39,1111122 
TCOON,ioos:station:TCOON:148:1,2017-06-16T19:30:00Z,27.9799,-97.0288,1.0,6.36,1111122 
TCOON,ioos:station:TCOON:148:1,2017-06-16T20:30:00Z,27.9799,-97.0288,1.0,6.54,1111122 
TCOON,ioos:station:TCOON:148:1,2017-06-16T21:30:00Z,27.9799,-97.0288,1.0,6.63,1111122 
TCOON,ioos:station:TCOON:148:1,2017-06-16T22:30:00Z,27.9799,-97.0288,1.0,6.63,1111122 
TCOON,ioos:station:TCOON:148:1,2017-06-16T23:30:00Z,27.9799,-97.0288,1.0,6.6,1111122 
TCOON,ioos:station:TCOON:148:1,2017-06-17T00:30:00Z,27.9799,-97.0288,1.0,6.47,1111122 
TCOON,ioos:station:TCOON:148:1,2017-06-17T18:30:00Z,27.9799,-97.0288,1.0,6.22,1111122 
TCOON,ioos:station:TCOON:148:1,2017-06-17T19:30:00Z,27.9799,-97.0288,1.0,6.3,1111122 
TCOON,ioos:station:TCOON:148:1,2017-06-17T20:30:00Z,27.9799,-97.0288,1.0,6.36,1111122 
TCOON,ioos:station:TCOON:148:1,2017-06-17T21:30:00Z,27.9799,-97.0288,1.0,6.38,1111122 
TCOON,ioos:station:TCOON:148:1,2017-06-17T22:30:00Z,27.9799,-97.0288,1.0,6.39,1111122 
TCOON,ioos:station:TCOON:148:1,2017-06-17T23:30:00Z,27.9799,-97.0288,1.0,6.43,1111122 
TCOON,ioos:station:TCOON:148:1,2017-06-19T19:30:00Z,27.9799,-97.0288,1.0,5.76,1111122 
TCOON,ioos:station:TCOON:148:1,2017-06-19T20:30:00Z,27.9799,-97.0288,1.0,6.12,1111122 
TCOON,ioos:station:TCOON:148:1,2017-06-19T21:30:00Z,27.9799,-97.0288,1.0,5.51,1111122 
TCOON,ioos:station:TCOON:148:1,2017-06-19T22:30:00Z,27.9799,-97.0288,1.0,5.32,1111122 
TCOON,ioos:station:TCOON:148:1,2017-06-19T23:30:00Z,27.9799,-97.0288,1.0,5.73,1111122 
TCOON,ioos:station:TCOON:148:1,2017-06-20T00:30:00Z,27.9799,-97.0288,1.0,6.86,1111122 
TCOON,ioos:station:TCOON:148:1,2017-06-20T01:30:00Z,27.9799,-97.0288,1.0,7.09,1111122 
TCOON,ioos:station:TCOON:148:1,2017-06-20T02:30:00Z,27.9799,-97.0288,1.0,7.12,1111122 
TCOON,ioos:station:TCOON:148:1,2017-06-20T03:30:00Z,27.9799,-97.0288,1.0,6.83,1111122 
TCOON,ioos:station:TCOON:148:1,2017-06-20T04:30:00Z,27.9799,-97.0288,1.0,7.03,1111122 
TCOON,ioos:station:TCOON:148:1,2017-06-20T05:30:00Z,27.9799,-97.0288,1.0,7.02,1111122 
TCOON,ioos:station:TCOON:148:1,2017-06-20T06:30:00Z,27.9799,-97.0288,1.0,6.99,1111122 
TCOON,ioos:station:TCOON:148:1,2017-06-20T07:30:00Z,27.9799,-97.0288,1.0,6.88,1111122 
TCOON,ioos:station:TCOON:148:1,2017-06-20T08:30:00Z,27.9799,-97.0288,1.0,6.86,1111122 
TCOON,ioos:station:TCOON:148:1,2017-06-20T09:30:00Z,27.9799,-97.0288,1.0,6.54,1111122 
TCOON,ioos:station:TCOON:148:1,2017-06-20T10:30:00Z,27.9799,-97.0288,1.0,6.7,1111122 
TCOON,ioos:station:TCOON:148:1,2017-06-20T11:30:00Z,27.9799,-97.0288,1.0,6.34,1111122 
TCOON,ioos:station:TCOON:148:1,2017-06-20T12:30:00Z,27.9799,-97.0288,1.0,6.41,1111122 
TCOON,ioos:station:TCOON:148:1,2017-06-20T13:30:00Z,27.9799,-97.0288,1.0,6.51,1111122 
TCOON,ioos:station:TCOON:148:1,2017-06-20T14:30:00Z,27.9799,-97.0288,1.0,6.38,1111122 
TCOON,ioos:station:TCOON:148:1,2017-06-20T15:30:00Z,27.9799,-97.0288,1.0,6.3,1111122 
TCOON,ioos:station:TCOON:148:1,2017-06-20T16:30:00Z,27.9799,-97.0288,1.0,6.37,1111122 
TCOON,ioos:station:TCOON:148:1,2017-06-20T17:30:00Z,27.9799,-97.0288,1.0,6.62,1111122 
TCOON,ioos:station:TCOON:148:1,2017-06-20T18:30:00Z,27.9799,-97.0288,1.0,6.68,1111122 
TCOON,ioos:station:TCOON:148:1,2017-06-20T19:30:00Z,27.9799,-97.0288,1.0,6.15,1111122 
TCOON,ioos:station:TCOON:148:1,2017-06-20T20:30:00Z,27.9799,-97.0288,1.0,6.66,1111122 
TCOON,ioos:station:TCOON:148:1,2017-06-20T21:30:00Z,27.9799,-97.0288,1.0,6.94,1111122 
TCOON,ioos:station:TCOON:148:1,2017-06-20T22:30:00Z,27.9799,-97.0288,1.0,6.93,1111122 
TCOON,ioos:station:TCOON:148:1,2017-06-20T23:30:00Z,27.9799,-97.0288,1.0,6.36,1111122 
TCOON,ioos:station:TCOON:148:1,2017-06-21T00:30:00Z,27.9799,-97.0288,1.0,5.96,1111122 
TCOON,ioos:station:TCOON:148:1,2017-06-21T01:30:00Z,27.9799,-97.0288,1.0,5.75,1111122 
TCOON,ioos:station:TCOON:148:1,2017-06-21T02:30:00Z,27.9799,-97.0288,1.0,5.74,1111122 
TCOON,ioos:station:TCOON:148:1,2017-06-21T03:30:00Z,27.9799,-97.0288,1.0,5.96,1111122 
TCOON,ioos:station:TCOON:148:1,2017-06-21T04:30:00Z,27.9799,-97.0288,1.0,6.12,1111122 
TCOON,ioos:station:TCOON:148:1,2017-06-21T05:30:00Z,27.9799,-97.0288,1.0,6.13,1111122 
TCOON,ioos:station:TCOON:148:1,2017-06-21T06:30:00Z,27.9799,-97.0288,1.0,6.11,1111122 
TCOON,ioos:station:TCOON:148:1,2017-06-21T07:30:00Z,27.9799,-97.0288,1.0,6.09,1111122 
TCOON,ioos:station:TCOON:148:1,2017-06-21T08:30:00Z,27.9799,-97.0288,1.0,5.92,1111122 
TCOON,ioos:station:TCOON:148:1,2017-06-21T09:30:00Z,27.9799,-97.0288,1.0,6.02,1111122 
TCOON,ioos:station:TCOON:148:1,2017-06-21T10:30:00Z,27.9799,-97.0288,1.0,6.03,1111122 
TCOON,ioos:station:TCOON:148:1,2017-06-21T11:30:00Z,27.9799,-97.0288,1.0,6.21,1111122 
TCOON,ioos:station:TCOON:148:1,2017-06-21T12:30:00Z,27.9799,-97.0288,1.0,6.17,1111122 
TCOON,ioos:station:TCOON:148:1,2017-06-21T13:30:00Z,27.9799,-97.0288,1.0,5.54,1111122 
TCOON,ioos:station:TCOON:148:1,2017-06-21T14:30:00Z,27.9799,-97.0288,1.0,6.16,1111122 
TCOON,ioos:station:TCOON:148:1,2017-06-21T15:30:00Z,27.9799,-97.0288,1.0,5.9,1111122 
TCOON,ioos:station:TCOON:148:1,2017-06-21T16:30:00Z,27.9799,-97.0288,1.0,5.99,1111122 
TCOON,ioos:station:TCOON:148:1,2017-06-21T17:30:00Z,27.9799,-97.0288,1.0,6.16,1111122 
TCOON,ioos:station:TCOON:148:1,2017-06-21T18:30:00Z,27.9799,-97.0288,1.0,6.43,1111122 
TCOON,ioos:station:TCOON:148:1,2017-06-21T19:30:00Z,27.9799,-97.0288,1.0,6.49,1111122 
TCOON,ioos:station:TCOON:148:1,2017-06-21T20:30:00Z,27.9799,-97.0288,1.0,6.58,1111122 
TCOON,ioos:station:TCOON:148:1,2017-06-21T21:30:00Z,27.9799,-97.0288,1.0,6.71,1111122 
TCOON,ioos:station:TCOON:148:1,2017-06-21T22:30:00Z,27.9799,-97.0288,1.0,6.69,1111122 
TCOON,ioos:station:TCOON:148:1,2017-06-21T23:30:00Z,27.9799,-97.0288,1.0,6.64,1111122 
TCOON,ioos:station:TCOON:148:1,2017-06-22T00:30:00Z,27.9799,-97.0288,1.0,6.54,1111122 
TCOON,ioos:station:TCOON:148:1,2017-06-22T01:30:00Z,27.9799,-97.0288,1.0,6.71,1111122 
TCOON,ioos:station:TCOON:148:1,2017-06-22T02:30:00Z,27.9799,-97.0288,1.0,6.7,1111122 
TCOON,ioos:station:TCOON:148:1,2017-06-22T03:30:00Z,27.9799,-97.0288,1.0,6.52,1111122 
TCOON,ioos:station:TCOON:148:1,2017-06-22T04:30:00Z,27.9799,-97.0288,1.0,6.5,1111122 
TCOON,ioos:station:TCOON:148:1,2017-06-22T05:30:00Z,27.9799,-97.0288,1.0,6.57,1111122 
TCOON,ioos:station:TCOON:148:1,2017-06-22T06:30:00Z,27.9799,-97.0288,1.0,6.48,1111122 
TCOON,ioos:station:TCOON:148:1,2017-06-22T07:30:00Z,27.9799,-97.0288,1.0,6.16,1111122 
TCOON,ioos:station:TCOON:148:1,2017-06-22T08:30:00Z,27.9799,-97.0288,1.0,6.42,1111122 
TCOON,ioos:station:TCOON:148:1,2017-06-22T09:30:00Z,27.9799,-97.0288,1.0,5.34,1111122 
TCOON,ioos:station:TCOON:148:1,2017-06-22T10:30:00Z,27.9799,-97.0288,1.0,5.5,1111122 
TCOON,ioos:station:TCOON:148:1,2017-06-22T11:30:00Z,27.9799,-97.0288,1.0,5.74,1111122 
TCOON,ioos:station:TCOON:148:1,2017-06-22T12:30:00Z,27.9799,-97.0288,1.0,5.63,1111122 
TCOON,ioos:station:TCOON:148:1,2017-06-22T13:30:00Z,27.9799,-97.0288,1.0,5.76,1111122 
TCOON,ioos:station:TCOON:148:1,2017-06-22T14:30:00Z,27.9799,-97.0288,1.0,6.07,1111122 
TCOON,ioos:station:TCOON:148:1,2017-06-22T15:30:00Z,27.9799,-97.0288,1.0,6.23,1111122 
TCOON,ioos:station:TCOON:148:1,2017-06-22T16:30:00Z,27.9799,-97.0288,1.0,6.27,1111122 
TCOON,ioos:station:TCOON:148:1,2017-06-22T17:30:00Z,27.9799,-97.0288,1.0,6.14,1111122 
TCOON,ioos:station:TCOON:148:1,2017-06-22T18:30:00Z,27.9799,-97.0288,1.0,6.24,1111122 
TCOON,ioos:station:TCOON:148:1,2017-06-22T19:30:00Z,27.9799,-97.0288,1.0,6.48,1111122 
TCOON,ioos:station:TCOON:148:1,2017-06-22T20:30:00Z,27.9799,-97.0288,1.0,6.4,1111122 
TCOON,ioos:station:TCOON:148:1,2017-06-22T21:30:00Z,27.9799,-97.0288,1.0,5.94,1111122 
TCOON,ioos:station:TCOON:148:1,2017-06-22T22:30:00Z,27.9799,-97.0288,1.0,6.33,1111122 
TCOON,ioos:station:TCOON:148:1,2017-06-22T23:30:00Z,27.9799,-97.0288,1.0,6.71,1111122 
TCOON,ioos:station:TCOON:148:1,2017-06-23T00:30:00Z,27.9799,-97.0288,1.0,6.77,1111122 
TCOON,ioos:station:TCOON:148:1,2017-06-23T01:30:00Z,27.9799,-97.0288,1.0,6.7,1111122 
TCOON,ioos:station:TCOON:148:1,2017-06-23T02:30:00Z,27.9799,-97.0288,1.0,6.65,1111122 
TCOON,ioos:station:TCOON:148:1,2017-06-23T03:30:00Z,27.9799,-97.0288,1.0,6.43,1111122 
TCOON,ioos:station:TCOON:148:1,2017-06-23T04:30:00Z,27.9799,-97.0288,1.0,6.37,1111122 
TCOON,ioos:station:TCOON:148:1,2017-06-23T05:30:00Z,27.9799,-97.0288,1.0,6.32,1111122 
TCOON,ioos:station:TCOON:148:1,2017-06-23T06:30:00Z,27.9799,-97.0288,1.0,6.2,1111122 
TCOON,ioos:station:TCOON:148:1,2017-06-23T07:30:00Z,27.9799,-97.0288,1.0,6.18,1111122 
TCOON,ioos:station:TCOON:148:1,2017-06-23T08:30:00Z,27.9799,-97.0288,1.0,6.16,1111122 
TCOON,ioos:station:TCOON:148:1,2017-06-23T09:30:00Z,27.9799,-97.0288,1.0,6.17,1111122 
TCOON,ioos:station:TCOON:148:1,2017-06-23T10:30:00Z,27.9799,-97.0288,1.0,6.05,1111122 
TCOON,ioos:station:TCOON:148:1,2017-06-23T11:30:00Z,27.9799,-97.0288,1.0,6.12,1111122 
TCOON,ioos:station:TCOON:148:1,2017-06-23T12:30:00Z,27.9799,-97.0288,1.0,6.12,1111122 
TCOON,ioos:station:TCOON:148:1,2017-06-23T13:30:00Z,27.9799,-97.0288,1.0,6.17,1111122 
TCOON,ioos:station:TCOON:148:1,2017-06-23T14:30:00Z,27.9799,-97.0288,1.0,6.16,1111122 
TCOON,ioos:station:TCOON:148:1,2017-06-23T15:30:00Z,27.9799,-97.0288,1.0,6.05,1111122 
TCOON,ioos:station:TCOON:148:1,2017-06-23T16:30:00Z,27.9799,-97.0288,1.0,6.09,1111122 
TCOON,ioos:station:TCOON:148:1,2017-06-23T17:30:00Z,27.9799,-97.0288,1.0,6.36,1111122 
TCOON,ioos:station:TCOON:148:1,2017-06-23T18:30:00Z,27.9799,-97.0288,1.0,6.38,1111122 
TCOON,ioos:station:TCOON:148:1,2017-06-23T19:30:00Z,27.9799,-97.0288,1.0,6.53,1111122 
TCOON,ioos:station:TCOON:148:1,2017-06-23T20:30:00Z,27.9799,-97.0288,1.0,6.29,1111122 
TCOON,ioos:station:TCOON:148:1,2017-06-23T21:30:00Z,27.9799,-97.0288,1.0,6.45,1111122 
TCOON,ioos:station:TCOON:148:1,2017-06-23T22:30:00Z,27.9799,-97.0288,1.0,6.55,1111122 
TCOON,ioos:station:TCOON:148:1,2017-06-23T23:30:00Z,27.9799,-97.0288,1.0,6.55,1111122 
TCOON,ioos:station:TCOON:148:1,2017-06-24T00:30:00Z,27.9799,-97.0288,1.0,6.75,1111122 
TCOON,ioos:station:TCOON:148:1,2017-06-24T01:30:00Z,27.9799,-97.0288,1.0,6.66,1111122 
TCOON,ioos:station:TCOON:148:1,2017-06-24T02:30:00Z,27.9799,-97.0288,1.0,6.23,1111122 
TCOON,ioos:station:TCOON:148:1,2017-06-24T03:30:00Z,27.9799,-97.0288,1.0,6.46,1111122 
TCOON,ioos:station:TCOON:148:1,2017-06-24T04:30:00Z,27.9799,-97.0288,1.0,6.33,1111122 
TCOON,ioos:station:TCOON:148:1,2017-06-24T05:30:00Z,27.9799,-97.0288,1.0,6.29,1111122 
TCOON,ioos:station:TCOON:148:1,2017-06-24T06:30:00Z,27.9799,-97.0288,1.0,6.23,1111122 
TCOON,ioos:station:TCOON:148:1,2017-06-24T07:30:00Z,27.9799,-97.0288,1.0,6.15,1111122 
TCOON,ioos:station:TCOON:148:1,2017-06-24T08:30:00Z,27.9799,-97.0288,1.0,6.15,1111122 
TCOON,ioos:station:TCOON:148:1,2017-06-24T09:30:00Z,27.9799,-97.0288,1.0,6.26,1111122 
TCOON,ioos:station:TCOON:148:1,2017-06-24T10:30:00Z,27.9799,-97.0288,1.0,6.25,1111122 
TCOON,ioos:station:TCOON:148:1,2017-06-24T11:30:00Z,27.9799,-97.0288,1.0,6.19,1111122 
TCOON,ioos:station:TCOON:148:1,2017-06-24T12:30:00Z,27.9799,-97.0288,1.0,6.14,1111122 
TCOON,ioos:station:TCOON:148:1,2017-06-24T13:30:00Z,27.9799,-97.0288,1.0,6.14,1111122 
TCOON,ioos:station:TCOON:148:1,2017-06-24T14:30:00Z,27.9799,-97.0288,1.0,6.19,1111122 
TCOON,ioos:station:TCOON:148:1,2017-06-24T15:30:00Z,27.9799,-97.0288,1.0,6.22,1111122 
TCOON,ioos:station:TCOON:148:1,2017-06-24T16:30:00Z,27.9799,-97.0288,1.0,6.25,1111122 
TCOON,ioos:station:TCOON:148:1,2017-06-24T17:30:00Z,27.9799,-97.0288,1.0,6.32,1111122 
TCOON,ioos:station:TCOON:148:1,2017-06-24T18:30:00Z,27.9799,-97.0288,1.0,6.5,1111122 
TCOON,ioos:station:TCOON:148:1,2017-06-24T19:30:00Z,27.9799,-97.0288,1.0,7.04,1111122 
TCOON,ioos:station:TCOON:148:1,2017-06-24T20:30:00Z,27.9799,-97.0288,1.0,6.94,1111122 
TCOON,ioos:station:TCOON:148:1,2017-06-24T21:30:00Z,27.9799,-97.0288,1.0,6.46,1111122 
TCOON,ioos:station:TCOON:148:1,2017-06-24T22:30:00Z,27.9799,-97.0288,1.0,6.38,1111122 
TCOON,ioos:station:TCOON:148:1,2017-06-24T23:30:00Z,27.9799,-97.0288,1.0,6.63,1111122 
TCOON,ioos:station:TCOON:148:1,2017-06-25T00:30:00Z,27.9799,-97.0288,1.0,6.74,1111122 
TCOON,ioos:station:TCOON:148:1,2017-06-25T01:30:00Z,27.9799,-97.0288,1.0,6.81,1111122 
TCOON,ioos:station:TCOON:148:1,2017-06-25T02:30:00Z,27.9799,-97.0288,1.0,6.83,1111122 
TCOON,ioos:station:TCOON:148:1,2017-06-25T03:30:00Z,27.9799,-97.0288,1.0,6.77,1111122 
TCOON,ioos:station:TCOON:148:1,2017-06-25T04:30:00Z,27.9799,-97.0288,1.0,6.76,1111122 
TCOON,ioos:station:TCOON:148:1,2017-06-25T05:30:00Z,27.9799,-97.0288,1.0,6.67,1111122 
TCOON,ioos:station:TCOON:148:1,2017-06-25T06:30:00Z,27.9799,-97.0288,1.0,6.55,1111122 
TCOON,ioos:station:TCOON:148:1,2017-06-25T07:30:00Z,27.9799,-97.0288,1.0,6.45,1111122 
TCOON,ioos:station:TCOON:148:1,2017-06-25T08:30:00Z,27.9799,-97.0288,1.0,6.24,1111122 
TCOON,ioos:station:TCOON:148:1,2017-06-25T09:30:00Z,27.9799,-97.0288,1.0,6.32,1111122 
TCOON,ioos:station:TCOON:148:1,2017-06-25T10:30:00Z,27.9799,-97.0288,1.0,6.0,1111122 
TCOON,ioos:station:TCOON:148:1,2017-06-25T11:30:00Z,27.9799,-97.0288,1.0,6.35,1111122 
TCOON,ioos:station:TCOON:148:1,2017-06-25T12:30:00Z,27.9799,-97.0288,1.0,6.32,1111122 
TCOON,ioos:station:TCOON:148:1,2017-06-25T13:30:00Z,27.9799,-97.0288,1.0,6.3,1111122 
TCOON,ioos:station:TCOON:148:1,2017-06-25T14:30:00Z,27.9799,-97.0288,1.0,6.25,1111122 
TCOON,ioos:station:TCOON:148:1,2017-06-25T15:30:00Z,27.9799,-97.0288,1.0,6.21,1111122 
TCOON,ioos:station:TCOON:148:1,2017-06-25T16:30:00Z,27.9799,-97.0288,1.0,6.29,1111122 
TCOON,ioos:station:TCOON:148:1,2017-06-25T17:30:00Z,27.9799,-97.0288,1.0,6.27,1111122 
TCOON,ioos:station:TCOON:148:1,2017-06-25T18:30:00Z,27.9799,-97.0288,1.0,6.29,1111122 
TCOON,ioos:station:TCOON:148:1,2017-06-25T19:30:00Z,27.9799,-97.0288,1.0,6.41,1111122 
TCOON,ioos:station:TCOON:148:1,2017-06-25T20:30:00Z,27.9799,-97.0288,1.0,6.29,1111122 
TCOON,ioos:station:TCOON:148:1,2017-06-25T21:30:00Z,27.9799,-97.0288,1.0,6.69,1111122 
TCOON,ioos:station:TCOON:148:1,2017-06-25T22:30:00Z,27.9799,-97.0288,1.0,6.7,1111122 
TCOON,ioos:station:TCOON:148:1,2017-06-25T23:30:00Z,27.9799,-97.0288,1.0,6.24,1111122 
TCOON,ioos:station:TCOON:148:1,2017-06-26T00:30:00Z,27.9799,-97.0288,1.0,5.78,1111122 
TCOON,ioos:station:TCOON:148:1,2017-06-26T01:30:00Z,27.9799,-97.0288,1.0,6.73,1111122 
TCOON,ioos:station:TCOON:148:1,2017-06-26T02:30:00Z,27.9799,-97.0288,1.0,6.58,1111122 
TCOON,ioos:station:TCOON:148:1,2017-06-26T03:30:00Z,27.9799,-97.0288,1.0,6.58,1111122 
TCOON,ioos:station:TCOON:148:1,2017-06-26T04:30:00Z,27.9799,-97.0288,1.0,6.76,1111122 
TCOON,ioos:station:TCOON:148:1,2017-06-26T05:30:00Z,27.9799,-97.0288,1.0,6.78,1111122 
TCOON,ioos:station:TCOON:148:1,2017-06-26T06:30:00Z,27.9799,-97.0288,1.0,6.64,1111122 
TCOON,ioos:station:TCOON:148:1,2017-06-26T07:30:00Z,27.9799,-97.0288,1.0,6.56,1111122 
TCOON,ioos:station:TCOON:148:1,2017-06-26T08:30:00Z,27.9799,-97.0288,1.0,6.56,1111122 
TCOON,ioos:station:TCOON:148:1,2017-06-26T09:30:00Z,27.9799,-97.0288,1.0,6.54,1111122 
TCOON,ioos:station:TCOON:148:1,2017-06-26T10:30:00Z,27.9799,-97.0288,1.0,6.61,1111122 
TCOON,ioos:station:TCOON:148:1,2017-06-26T11:30:00Z,27.9799,-97.0288,1.0,6.6,1111122 
TCOON,ioos:station:TCOON:148:1,2017-06-26T12:30:00Z,27.9799,-97.0288,1.0,6.1,1111122 
TCOON,ioos:station:TCOON:148:1,2017-06-26T13:30:00Z,27.9799,-97.0288,1.0,6.25,1111122 
TCOON,ioos:station:TCOON:148:1,2017-06-26T14:30:00Z,27.9799,-97.0288,1.0,6.11,1111122 
TCOON,ioos:station:TCOON:148:1,2017-06-26T15:30:00Z,27.9799,-97.0288,1.0,6.3,1111122 
TCOON,ioos:station:TCOON:148:1,2017-06-26T16:30:00Z,27.9799,-97.0288,1.0,6.31,1111122 
TCOON,ioos:station:TCOON:148:1,2017-06-26T17:30:00Z,27.9799,-97.0288,1.0,6.42,1111122 
TCOON,ioos:station:TCOON:148:1,2017-06-26T18:30:00Z,27.9799,-97.0288,1.0,6.67,1111122 
TCOON,ioos:station:TCOON:148:1,2017-06-26T19:30:00Z,27.9799,-97.0288,1.0,6.86,1111122 
TCOON,ioos:station:TCOON:148:1,2017-06-26T20:30:00Z,27.9799,-97.0288,1.0,6.89,1111122 
TCOON,ioos:station:TCOON:148:1,2017-06-26T21:30:00Z,27.9799,-97.0288,1.0,6.81,1111122 
TCOON,ioos:station:TCOON:148:1,2017-06-27T01:30:00Z,27.9799,-97.0288,1.0,6.94,1111122 
TCOON,ioos:station:TCOON:148:1,2017-06-27T02:30:00Z,27.9799,-97.0288,1.0,6.65,1111122 
TCOON,ioos:station:TCOON:148:1,2017-06-27T03:30:00Z,27.9799,-97.0288,1.0,6.69,1111122 
TCOON,ioos:station:TCOON:148:1,2017-06-27T04:30:00Z,27.9799,-97.0288,1.0,6.61,1111122 
TCOON,ioos:station:TCOON:148:1,2017-06-27T06:30:00Z,27.9799,-97.0288,1.0,6.5,1111122 
TCOON,ioos:station:TCOON:148:1,2017-06-27T07:30:00Z,27.9799,-97.0288,1.0,6.44,1111122 
TCOON,ioos:station:TCOON:148:1,2017-06-27T08:30:00Z,27.9799,-97.0288,1.0,6.66,1111122 
TCOON,ioos:station:TCOON:148:1,2017-06-27T09:30:00Z,27.9799,-97.0288,1.0,6.31,1111122 
TCOON,ioos:station:TCOON:148:1,2017-06-27T10:30:00Z,27.9799,-97.0288,1.0,6.47,1111122 
TCOON,ioos:station:TCOON:148:1,2017-06-27T11:30:00Z,27.9799,-97.0288,1.0,6.45,1111122 
TCOON,ioos:station:TCOON:148:1,2017-06-27T12:30:00Z,27.9799,-97.0288,1.0,6.35,1111122 
TCOON,ioos:station:TCOON:148:1,2017-06-27T13:30:00Z,27.9799,-97.0288,1.0,6.34,1111122 
TCOON,ioos:station:TCOON:148:1,2017-06-27T14:30:00Z,27.9799,-97.0288,1.0,6.14,1111122 
TCOON,ioos:station:TCOON:148:1,2017-06-28T06:30:00Z,27.9799,-97.0288,1.0,6.79,1111122 
TCOON,ioos:station:TCOON:148:1,2017-06-28T07:30:00Z,27.9799,-97.0288,1.0,6.83,1111122 
TCOON,ioos:station:TCOON:148:1,2017-06-28T08:30:00Z,27.9799,-97.0288,1.0,6.77,1111122 
TCOON,ioos:station:TCOON:148:1,2017-06-28T09:30:00Z,27.9799,-97.0288,1.0,6.74,1111122 
TCOON,ioos:station:TCOON:148:1,2017-06-28T10:30:00Z,27.9799,-97.0288,1.0,6.61,1111122 
TCOON,ioos:station:TCOON:148:1,2017-06-28T11:30:00Z,27.9799,-97.0288,1.0,6.64,1111122 
TCOON,ioos:station:TCOON:148:1,2017-06-28T12:30:00Z,27.9799,-97.0288,1.0,6.5,1111122 
TCOON,ioos:station:TCOON:148:1,2017-06-28T13:30:00Z,27.9799,-97.0288,1.0,6.11,1111122 
TCOON,ioos:station:TCOON:148:1,2017-06-28T14:30:00Z,27.9799,-97.0288,1.0,5.62,1111122 
TCOON,ioos:station:TCOON:148:1,2017-06-28T15:30:00Z,27.9799,-97.0288,1.0,5.86,1111122 
TCOON,ioos:station:TCOON:148:1,2017-06-28T16:30:00Z,27.9799,-97.0288,1.0,5.74,1111122 